Wind_Speed
42 43 43 44 45 46 47 48 49 49 50 50 50 50 50 50 50 50 50 50 51 51 52 51 50 49 48 46 45 45 44 42 41 40 39 37 36 34 33 32 30 28 26
43 43 44 46 47 47 48 49 50 50 50 51 51 51 51 51 52 53 53 54 54 54 55 56 55 54 53 51 49 48 47 46 45 43 41 40 39 37 36 35 34 31 29
44 45 46 47 47 48 48 48 48 48 49 50 50 51 51 51 52 54 55 55 57 57 57 58 58 58 57 56 54 52 50 49 48 47 45 43 42 41 39 38 37 35 33
44 45 46 46 46 46 45 44 44 44 45 45 47 49 49 50 51 53 54 55 57 58 58 59 60 60 59 59 58 56 54 53 51 49 48 47 45 43 42 40 39 38 37
45 45 45 45 44 43 42 41 41 41 41 42 44 44 46 47 48 51 53 54 56 57 58 59 60 61 61 61 60 59 58 57 55 52 50 50 48 46 44 44 41 40 39
44 45 44 44 42 41 40 39 38 38 39 39 40 40 41 43 45 47 50 51 53 54 55 57 59 60 61 61 61 61 60 59 58 56 54 53 51 49 48 46 45 43 41
44 44 43 42 40 38 37 36 36 37 37 36 35 35 35 38 40 42 45 48 50 52 53 55 58 58 59 60 60 61 61 60 59 58 56 55 54 52 50 49 47 46 44
43 42 41 40 38 36 35 34 33 32 31 30 30 30 30 31 33 35 38 42 44 46 48 51 54 56 57 57 58 60 60 60 60 59 57 56 55 55 53 51 49 48 46
42 41 40 38 37 34 33 32 29 28 27 26 25 24 25 26 28 29 31 35 38 40 42 44 47 50 53 54 56 56 58 59 59 58 57 57 56 55 54 52 51 49 47
41 40 38 37 35 33 31 29 27 25 23 21 20 19 19 20 22 24 25 28 31 35 37 40 41 44 47 49 50 52 54 55 56 56 56 56 56 55 53 52 51 49 48
40 38 37 35 33 31 28 26 23 20 18 16 15 14 14 15 17 19 21 23 25 29 31 34 36 38 41 43 46 47 49 51 53 53 54 55 55 54 54 53 52 50 49
38 37 36 33 31 29 26 23 20 17 15 13 12 10 11 12 14 15 17 19 21 24 27 29 31 33 35 37 39 42 44 46 48 49 50 51 52 52 52 52 51 50 49
38 36 34 32 30 28 25 22 19 16 14 13 11 9 9 10 12 13 14 16 18 20 22 25 26 27 29 31 33 36 38 41 43 45 46 46 47 47 48 49 49 49 49
37 35 34 31 29 27 25 23 20 17 15 12 10 9 7 6 7 8 11 12 14 15 18 21 23 24 26 28 30 32 34 36 38 41 42 44 45 45 45 46 46 46 47
36 35 33 31 29 28 25 23 20 17 15 13 11 8 6 4 4 5 7 10 12 14 15 18 20 21 23 25 27 28 30 32 35 38 41 42 43 44 43 42 43 44 44
35 34 32 30 29 28 26 23 21 19 15 13 11 9 7 5 3 3 4 7 9 11 13 16 17 19 21 23 24 26 28 30 32 34 37 40 41 42 42 42 41 42 42
34 33 31 29 28 27 26 24 22 19 17 14 12 11 8 5 3 2 2 4 6 8 10 12 15 17 19 21 23 24 25 27 29 31 33 36 39 41 41 41 40 39 39
32 31 30 28 27 26 25 24 22 20 18 17 14 12 10 8 6 4 2 1 3 5 7 9 11 13 16 18 20 22 23 26 27 29 32 34 37 38 39 39 38 37 37
31 29 28 27 26 25 24 23 22 21 19 18 16 14 12 10 8 6 4 3 2 2 4 6 8 10 13 14 16 18 21 23 25 28 30 33 36 37 37 37 36 36 36
30 28 27 26 25 24 23 22 21 20 19 18 17 16 14 12 11 9 7 5 3 2 1 3 4 7 9 11 12 14 15 18 21 23 27 30 33 35 35 35 35 35 34
29 28 26 25 24 23 22 22 21 20 19 19 18 17 15 13 12 10 8 7 6 5 3 1 2 4 7 9 10 12 14 15 17 20 24 27 29 31 32 33 33 33 32
28 27 25 24 24 23 22 21 20 20 19 19 18 18 16 15 14 13 11 8 6 5 4 3 2 3 4 6 8 10 13 15 16 19 22 24 26 28 29 30 30 30 29
27 25 24 23 22 21 21 20 20 19 19 19 18 17 17 17 16 15 13 11 9 7 6 5 5 5 6 7 9 11 12 14 16 19 22 24 26 26 28 28 28 28 27
26 24 23 22 21 21 20 20 19 19 18 18 17 17 16 16 16 15 14 12 11 10 8 7 7 8 9 10 11 12 13 14 15 19 22 24 24 25 25 26 25 25 25
24 23 22 21 20 20 20 20 20 19 18 17 16 16 16 15 15 15 15 14 13 12 12 11 10 10 11 11 12 13 15 16 18 19 20 21 22 23 24 24 24 25 25
22 21 20 20 18 18 18 18 19 18 17 17 16 16 16 15 14 15 15 16 16 15 13 13 13 12 12 12 14 16 17 16 16 16 17 19 20 20 22 22 22 22 21
Wind_Direction
304 302 299 297 295 292 290 288 285 282 279 276 271 266 263 260 258 254 252 251 248 245 243 242 240 238 236 235 234 235 234 234 234 235 236 236 235 234 235 235 235 237 238
307 304 301 299 297 294 291 288 285 282 278 275 271 267 262 258 256 254 252 250 248 246 243 241 240 240 238 236 235 235 235 235 235 236 237 237 237 235 235 236 236 237 239
310 307 305 303 300 296 293 290 287 283 279 275 271 267 262 259 256 253 251 248 246 245 244 242 240 240 239 237 236 236 235 235 236 236 236 237 238 237 236 236 237 238 239
313 311 309 306 303 300 296 292 289 285 282 277 272 267 262 259 255 252 250 247 245 245 244 242 241 240 240 239 237 236 236 236 236 236 237 237 237 237 237 237 237 238 238
315 313 311 309 306 302 298 295 292 288 284 280 275 269 263 258 254 251 248 247 245 244 243 242 241 240 240 240 239 238 237 237 236 237 237 237 237 237 237 238 238 238 238
319 317 315 313 310 306 301 297 294 291 287 284 278 271 264 258 254 251 247 247 245 244 243 242 241 241 240 240 239 238 237 237 237 237 237 238 238 238 238 238 239 239 238
323 322 320 317 314 310 306 302 299 296 292 287 280 272 265 258 255 252 248 247 245 244 243 242 241 240 240 239 238 238 238 237 237 237 238 239 239 239 239 239 240 240 239
328 326 324 322 319 316 311 308 305 301 296 290 283 274 264 257 253 251 249 246 244 243 242 241 241 240 239 238 237 237 237 237 237 237 239 239 239 239 239 239 240 240 240
332 331 329 327 325 321 317 314 310 306 301 296 286 276 267 258 254 252 249 246 242 240 239 239 239 239 239 237 236 236 236 236 236 236 236 238 239 238 239 239 240 241 241
336 335 334 332 330 328 325 321 316 311 307 303 293 280 269 258 254 251 248 245 240 237 236 236 236 236 237 237 236 235 235 235 235 235 235 236 236 237 238 239 239 240 240
340 340 339 337 336 335 333 329 324 320 316 312 303 287 271 260 254 250 247 244 240 237 235 235 235 235 235 235 235 234 234 233 233 234 234 234 235 236 238 239 239 240 240
345 345 344 344 343 343 343 341 338 334 331 326 317 302 281 265 256 251 247 243 239 234 233 233 234 234 234 233 232 231 231 231 231 232 233 234 234 235 236 236 237 238 238
349 350 351 350 350 350 349 349 347 343 339 336 328 316 297 276 262 252 245 239 236 233 232 231 231 229 229 229 230 228 229 229 229 230 230 231 231 232 233 234 234 235 235
354 355 357 357 357 356 356 356 355 353 350 346 339 331 317 294 270 249 239 235 232 230 230 227 227 227 227 227 228 227 227 228 228 228 228 228 228 228 230 232 232 232 232
358 358 359 1 3 3 2 3 2 359 356 354 349 343 336 316 286 258 244 236 233 231 227 223 224 225 225 225 225 226 226 227 227 227 226 225 225 225 226 227 229 230 230
1 2 4 6 7 8 9 9 9 9 7 5 6 4 359 343 311 276 256 241 235 231 226 223 223 226 227 226 226 227 228 228 225 224 223 223 222 221 221 222 224 227 227
2 4 6 8 10 12 14 15 16 17 17 18 15 13 11 7 351 312 260 238 231 227 227 228 227 228 228 229 228 227 227 226 223 221 219 218 218 216 216 218 221 223 224
3 5 8 10 11 14 16 17 20 21 21 22 20 19 21 21 22 22 12 293 249 235 234 232 229 227 227 228 228 227 226 223 221 219 218 216 213 213 213 216 218 220 222
5 7 8 11 13 15 17 18 20 22 24 26 27 25 25 27 30 32 25 3 320 262 253 241 233 226 223 223 223 223 222 220 218 217 215 212 210 210 212 214 215 216 220
6 8 9 11 14 17 19 20 21 23 25 27 27 29 30 31 30 31 31 29 21 353 289 239 226 215 210 211 212 211 212 212 210 209 207 206 206 207 209 210 211 213 215
6 8 10 12 15 17 18 19 21 24 26 26 26 26 28 30 31 32 34 39 43 37 39 135 191 196 201 206 205 206 204 203 202 199 198 200 201 204 206 206 207 208 211
5 7 9 13 16 18 20 23 24 25 26 28 31 34 37 38 39 40 40 40 43 43 46 67 123 146 166 179 185 188 189 192 190 189 191 192 193 196 197 198 199 201 204
4 7 9 12 14 17 20 21 23 25 27 30 34 38 41 40 40 40 41 43 44 53 65 79 96 111 130 143 152 156 158 166 176 181 183 183 183 186 189 190 192 196 201
2 5 7 10 14 17 18 20 22 23 26 29 33 36 39 41 41 40 42 46 49 53 57 73 94 109 120 129 136 140 143 147 155 164 169 173 177 179 182 184 189 194 197
358 2 4 7 11 15 19 22 24 26 28 31 35 37 38 40 41 42 44 47 52 60 67 78 89 103 112 124 131 136 142 145 150 154 160 166 172 175 179 184 190 191 190
353 357 0 4 8 12 16 22 26 29 33 36 39 40 42 44 46 47 50 53 58 62 72 82 91 101 109 117 127 133 136 139 142 148 153 157 160 164 170 174 176 178 183
Height
5724 5719 5715 5710 5706 5702 5698 5695 5692 5690 5688 5687 5688 5690 5692 5695 5697 5700 5704 5708 5713 5717 5722 5727 5732 5738 5743 5749 5755 5761 5766 5771 5776 5782 5786 5792 5796 5801 5805 5809 5813 5816 5820
5713 5707 5702 5697 5692 5687 5682 5678 5675 5673 5671 5669 5670 5671 5673 5676 5680 5684 5687 5692 5696 5701 5707 5712 5719 5724 5730 5736 5743 5749 5755 5761 5766 5772 5777 5782 5787 5792 5797 5801 5806 5810 5813
5701 5695 5689 5682 5676 5671 5666 5661 5657 5655 5653 5651 5651 5652 5654 5658 5661 5665 5669 5674 5679 5685 5691 5697 5703 5709 5715 5722 5729 5736 5742 5749 5755 5761 5767 5772 5777 5783 5788 5793 5798 5802 5806
5690 5683 5675 5668 5661 5655 5649 5645 5641 5638 5636 5634 5633 5634 5636 5639 5643 5646 5651 5656 5661 5667 5673 5680 5687 5694 5700 5707 5714 5721 5729 5735 5742 5749 5756 5761 5767 5773 5778 5784 5789 5794 5798
5679 5671 5663 5655 5648 5641 5635 5630 5626 5623 5620 5618 5616 5616 5618 5621 5624 5628 5633 5638 5644 5650 5656 5662 5669 5677 5684 5691 5698 5706 5714 5721 5728 5736 5743 5750 5756 5762 5768 5774 5779 5784 5789
5668 5659 5651 5643 5635 5628 5622 5617 5613 5609 5605 5602 5600 5600 5601 5604 5607 5611 5615 5621 5627 5633 5639 5645 5652 5659 5667 5675 5683 5691 5699 5707 5715 5722 5730 5737 5744 5751 5757 5762 5769 5775 5780
5657 5648 5640 5631 5624 5617 5611 5605 5600 5596 5592 5588 5586 5586 5587 5589 5592 5596 5600 5605 5611 5617 5623 5629 5635 5643 5651 5659 5667 5675 5684 5692 5700 5708 5716 5724 5731 5739 5745 5751 5758 5763 5770
5649 5639 5630 5622 5614 5607 5600 5595 5589 5584 5580 5577 5574 5574 5574 5576 5579 5583 5586 5591 5596 5602 5608 5614 5621 5628 5635 5643 5652 5660 5669 5678 5686 5695 5704 5711 5718 5725 5732 5740 5746 5752 5759
5641 5631 5622 5614 5606 5598 5591 5585 5580 5575 5571 5568 5565 5564 5565 5567 5569 5572 5576 5580 5585 5590 5596 5601 5608 5614 5622 5630 5638 5647 5655 5662 5670 5680 5689 5696 5704 5712 5719 5727 5734 5741 5748
5635 5625 5616 5607 5599 5591 5584 5578 5573 5568 5564 5561 5559 5558 5558 5560 5562 5564 5567 5571 5575 5580 5586 5591 5597 5603 5608 5616 5624 5632 5640 5648 5657 5666 5675 5683 5691 5699 5707 5715 5723 5730 5736
5629 5620 5610 5601 5593 5586 5579 5573 5567 5563 5559 5557 5554 5553 5553 5555 5556 5558 5561 5564 5567 5572 5576 5582 5587 5592 5598 5605 5612 5620 5627 5635 5643 5652 5661 5670 5678 5686 5695 5703 5711 5718 5725
5625 5616 5607 5598 5590 5583 5576 5570 5565 5560 5557 5554 5552 5551 5551 5551 5552 5554 5556 5559 5562 5565 5570 5574 5579 5584 5590 5595 5602 5609 5616 5624 5632 5640 5649 5657 5666 5674 5682 5690 5698 5706 5714
5623 5613 5604 5596 5588 5581 5574 5569 5564 5560 5556 5553 5551 5550 5549 5549 5549 5551 5553 5555 5558 5561 5564 5568 5573 5578 5583 5588 5594 5600 5606 5614 5622 5630 5638 5646 5654 5662 5670 5678 5686 5694 5702
5621 5612 5603 5595 5588 5581 5574 5569 5564 5560 5556 5553 5551 5549 5548 5547 5547 5548 5550 5552 5555 5558 5561 5564 5568 5572 5577 5582 5587 5592 5598 5605 5612 5620 5627 5635 5643 5651 5659 5667 5675 5683 5691
5621 5612 5604 5596 5589 5582 5576 5570 5565 5561 5557 5554 5551 5550 5548 5548 5548 5548 5549 5550 5553 5555 5558 5561 5564 5568 5572 5576 5581 5585 5591 5597 5603 5610 5617 5625 5633 5641 5649 5657 5665 5672 5680
5622 5613 5605 5598 5591 5584 5578 5572 5567 5562 5558 5555 5553 5551 5549 5548 5548 5548 5548 5549 5551 5553 5555 5558 5561 5564 5567 5571 5575 5579 5584 5589 5595 5601 5608 5616 5624 5631 5640 5648 5655 5663 5671
5623 5615 5607 5600 5593 5587 5581 5575 5570 5566 5561 5558 5555 5553 5551 5549 5549 5548 5549 5549 5550 5551 5553 5555 5557 5559 5562 5565 5569 5573 5578 5582 5587 5593 5600 5607 5615 5623 5631 5639 5647 5654 5662
5625 5617 5610 5603 5596 5590 5584 5579 5574 5569 5565 5561 5558 5555 5553 5551 5550 5550 5549 5549 5550 5550 5551 5552 5554 5556 5558 5561 5564 5568 5571 5575 5580 5586 5592 5600 5607 5615 5623 5631 5639 5647 5654
5627 5620 5613 5606 5600 5594 5588 5583 5578 5573 5569 5565 5562 5559 5556 5554 5553 5551 5550 5550 5550 5550 5550 5551 5552 5553 5555 5558 5560 5563 5566 5570 5575 5580 5586 5593 5601 5609 5616 5624 5632 5640 5647
5629 5622 5616 5609 5603 5597 5592 5587 5582 5577 5573 5569 5566 5563 5560 5558 5556 5554 5553 5552 5551 5550 5550 5550 5551 5552 5554 5556 5558 5560 5563 5566 5570 5575 5581 5588 5596 5603 5611 5618 5626 5633 5640
5631 5625 5619 5613 5607 5601 5596 5591 5586 5582 5578 5574 5570 5567 5564 5561 5559 5557 5555 5554 5553 5552 5551 5551 5551 5552 5553 5555 5557 5559 5561 5564 5568 5573 5578 5585 5592 5599 5606 5613 5621 5628 5635
5634 5628 5622 5616 5611 5605 5600 5595 5590 5586 5582 5578 5574 5571 5568 5565 5562 5560 5558 5556 5555 5554 5553 5553 5552 5553 5553 5555 5556 5559 5561 5564 5568 5572 5577 5583 5589 5596 5603 5611 5617 5625 5631
5636 5630 5625 5619 5614 5609 5604 5599 5595 5591 5587 5583 5579 5576 5573 5570 5567 5565 5562 5560 5558 5557 5556 5555 5554 5555 5555 5556 5558 5560 5563 5565 5569 5573 5578 5583 5590 5596 5603 5609 5616 5623 5629
5638 5633 5627 5622 5617 5613 5608 5603 5598 5594 5591 5587 5584 5581 5578 5575 5572 5569 5567 5564 5562 5560 5559 5558 5557 5558 5558 5560 5561 5564 5566 5569 5572 5575 5580 5585 5591 5597 5603 5609 5615 5621 5627
5640 5635 5630 5625 5620 5616 5611 5607 5602 5598 5595 5592 5589 5586 5583 5580 5577 5575 5572 5569 5567 5565 5563 5562 5562 5562 5563 5564 5566 5568 5570 5573 5576 5580 5584 5588 5593 5598 5604 5609 5615 5620 5625
5641 5636 5632 5627 5623 5619 5615 5611 5607 5603 5599 5596 5594 5591 5588 5585 5583 5580 5578 5575 5573 5571 5569 5568 5568 5568 5569 5570 5571 5573 5576 5578 5581 5584 5588 5592 5596 5601 5606 5611 5616 5621 5625